Jordan Hwy 8

*Note: All times are displayed in the local standard time of the station location.
**Rain - Equipment is designed to accurately record liquid precipitation; under conditions when precipitation is not in liquid form, the data displayed may not properly reflect rainfall values.

Date Max Temp
(°C)
Min Temp
(°C)
Avg Temp
(°C)
Rain (mm) Avg RH (%)
Sat, Feb 17, 2018 -0.4 -6.2 -2.9 0.0 68.3
Fri, Feb 16, 2018 4.1 -6.0 0.0 0.0 75.5
Thu, Feb 15, 2018 9.0 2.8 6.0 0.4 91.6
Wed, Feb 14, 2018 5.7 -5.7 3.0 8.2 70.9
Tue, Feb 13, 2018 -1.1 -15.0 -7.5 0.2 72.9
Mon, Feb 12, 2018 -1.4 -11.1 -4.6 0.2 67.4
Sun, Feb 11, 2018 1.1 -3.7 -1.5 6.6 87.5
DateTime Avg Temp (°C) Rain (mm) RH (%)
Sun, Feb 18, 2018 04:00 -2.0 0.0 83.3
Sun, Feb 18, 2018 03:00 -1.5 0.0 80.5
Sun, Feb 18, 2018 02:00 -1.4 0.0 81.0
Sun, Feb 18, 2018 01:00 -1.5 0.0 83.8
Sun, Feb 18, 2018 00:00 -1.4 0.0 81.3
Sat, Feb 17, 2018 23:00 -1.1 0.0 76.5
Sat, Feb 17, 2018 22:00 -1.3 0.0 69.8
Sat, Feb 17, 2018 21:00 -1.5 0.0 68.3
Sat, Feb 17, 2018 20:00 -1.7 0.0 68.0
Sat, Feb 17, 2018 19:00 -1.5 0.0 61.0
Sat, Feb 17, 2018 18:00 -1.2 0.0 57.0
Sat, Feb 17, 2018 17:00 -1.1 0.0 54.8
Sat, Feb 17, 2018 16:00 -1.0 0.0 57.0
Sat, Feb 17, 2018 15:00 -0.8 0.0 56.5
Sat, Feb 17, 2018 14:00 -0.7 0.0 57.0
Sat, Feb 17, 2018 13:00 -0.8 0.0 57.0
Sat, Feb 17, 2018 12:00 -0.9 0.0 58.3
Sat, Feb 17, 2018 11:00 -1.3 0.0 60.0
Sat, Feb 17, 2018 10:00 -2.4 0.0 65.0
Sat, Feb 17, 2018 09:00 -4.0 0.0 70.8
Sat, Feb 17, 2018 08:00 -5.7 0.0 77.0
Sat, Feb 17, 2018 07:00 -6.2 0.0 79.3
Sat, Feb 17, 2018 06:00 -6.0 0.0 81.3
Sat, Feb 17, 2018 05:00 -5.7 0.0 79.5
Sat, Feb 17, 2018 04:00 -5.7 0.0 78.5
Sat, Feb 17, 2018 03:00 -5.9 0.0 76.8
Sat, Feb 17, 2018 02:00 -5.8 0.0 74.5
Sat, Feb 17, 2018 01:00 -6.0 0.0 74.8
Sat, Feb 17, 2018 00:00 -5.8 0.0 75.0
Fri, Feb 16, 2018 23:00 -5.7 0.0 72.8
Fri, Feb 16, 2018 22:00 -5.1 0.0 69.3
Fri, Feb 16, 2018 21:00 -4.1 0.0 61.5
Fri, Feb 16, 2018 20:00 -3.5 0.0 59.3
Fri, Feb 16, 2018 19:00 -3.1 0.0 56.8
Fri, Feb 16, 2018 18:00 -2.5 0.0 56.3
Fri, Feb 16, 2018 17:00 -1.0 0.0 57.3
Fri, Feb 16, 2018 16:00 0.2 0.0 57.5
Fri, Feb 16, 2018 15:00 1.2 0.0 58.0
Fri, Feb 16, 2018 14:00 1.5 0.0 59.3
Fri, Feb 16, 2018 13:00 1.8 0.0 63.0
Fri, Feb 16, 2018 12:00 1.9 0.0 71.3
Fri, Feb 16, 2018 11:00 1.6 0.0 81.0
Fri, Feb 16, 2018 10:00 1.6 0.0 81.3
Fri, Feb 16, 2018 09:00 1.3 0.0 82.3
Fri, Feb 16, 2018 08:00 1.3 0.0 84.8
Fri, Feb 16, 2018 07:00 1.9 0.0 86.5
Fri, Feb 16, 2018 06:00 2.3 0.0 92.0
Fri, Feb 16, 2018 05:00 2.0 0.0 97.3


asterix Register now to access more data! asterix